| time (UTC) | temp F | wind direction | speed knots | gust knots | rain 1hr in | rain 24hr in | rain mn in | humidity % | barometer mb |
| 20260506144229 | 54 | 36 | 9.6 | 16.5 | 0.00 | 0.00 | 0.00 | 79 | 1009.8 |
| 20260506143727 | 54 | 30 | 9.6 | 18.2 | 0.00 | 0.00 | 0.00 | 80 | 1009.8 |
| 20260506143225 | 53 | 24 | 9.6 | 18.2 | 0.00 | 0.00 | 0.00 | 80 | 1009.8 |
| 20260506142949 | 53 | 33 | 9.6 | 14.8 | 0.00 | 0.00 | 0.00 | 80 | 1009.8 |
| 20260506142226 | 53 | 46 | 9.6 | 16.5 | 0.00 | 0.00 | 0.00 | 80 | 1009.8 |
| 20260506141726 | 53 | 38 | 9.6 | 16.5 | 0.00 | 0.00 | 0.00 | 80 | 1009.9 |
| 20260506141225 | 54 | 34 | 8.7 | 15.6 | 0.00 | 0.00 | 0.00 | 80 | 1009.9 |
| 20260506140722 | 54 | 34 | 9.6 | 16.5 | 0.00 | 0.00 | 0.00 | 80 | 1009.9 |
| 20260506140223 | 55 | 51 | 9.6 | 16.5 | 0.00 | 0.00 | 0.00 | 80 | 1009.9 |
| 20260506135720 | 54 | 39 | 10.4 | 16.5 | 0.00 | 0.00 | 0.00 | 81 | 1009.9 |
| 20260506135221 | 54 | 53 | 10.4 | 16.5 | 0.00 | 0.00 | 0.00 | 80 | 1010.0 |
| 20260506134721 | 54 | 37 | 10.4 | 18.2 | 0.00 | 0.00 | 0.00 | 80 | 1010.0 |
| 20260506134440 | 54 | 16 | 10.4 | 19.1 | 0.00 | 0.00 | 0.00 | 81 | 1009.8 |
| 20260506133718 | 54 | 38 | 8.7 | 19.1 | 0.00 | 0.00 | 0.00 | 80 | 1009.8 |
| 20260506133218 | 54 | 53 | 7.8 | 16.5 | 0.00 | 0.00 | 0.00 | 80 | 1009.9 |
| 20260506132718 | 54 | 51 | 7.8 | 14.8 | 0.00 | 0.00 | 0.00 | 80 | 1009.9 |
| 20260506132217 | 55 | 32 | 7.8 | 20.0 | 0.00 | 0.00 | 0.00 | 80 | 1009.8 |
| 20260506131716 | 54 | 27 | 9.6 | 20.0 | 0.00 | 0.00 | 0.00 | 80 | 1009.7 |
| 20260506131214 | 54 | 28 | 10.4 | 19.1 | 0.00 | 0.00 | 0.00 | 80 | 1009.7 |
| 20260506130714 | 54 | 46 | 10.4 | 17.4 | 0.00 | 0.00 | 0.00 | 79 | 1009.8 |
| 20260506130215 | 55 | 35 | 9.6 | 17.4 | 0.00 | 0.00 | 0.00 | 78 | 1009.8 |
| 20260506125713 | 55 | 56 | 8.7 | 16.5 | 0.00 | 0.00 | 0.00 | 79 | 1009.6 |
| 20260506125431 | 55 | 26 | 7.8 | 16.5 | 0.00 | 0.00 | 0.00 | 78 | 1009.6 |
| 20260506124712 | 55 | 71 | 8.7 | 15.6 | 0.00 | 0.00 | 0.00 | 78 | 1009.7 |
| 20260506124210 | 55 | 28 | 8.7 | 15.6 | 0.00 | 0.00 | 0.00 | 77 | 1009.6 |
| 20260506123709 | 55 | 24 | 8.7 | 17.4 | 0.00 | 0.00 | 0.00 | 77 | 1009.6 |
| 20260506123203 | 55 | 17 | 9.6 | 18.2 | 0.00 | 0.00 | 0.00 | 76 | 1009.5 |
| 20260506122923 | 56 | 32 | 9.6 | 18.2 | 0.00 | 0.00 | 0.00 | 74 | 1009.5 |
| 20260506122202 | 57 | 57 | 7.8 | 13.9 | 0.00 | 0.00 | 0.00 | 71 | 1009.4 |
| 20260506121702 | 57 | 65 | 7.0 | 15.6 | 0.00 | 0.00 | 0.00 | 67 | 1009.4 |
| 20260506121426 | 58 | 26 | 6.1 | 15.6 | 0.00 | 0.00 | 0.00 | 68 | 1009.3 |
| 20260506120933 | 57 | 36 | 7.0 | 15.6 | 0.00 | 0.00 | 0.00 | 68 | 1009.2 |
| 20260506120418 | 56 | 35 | 6.1 | 15.6 | 0.00 | 0.00 | 0.00 | 68 | 1009.3 |
| 20260506115659 | 56 | 34 | 6.1 | 13.9 | 0.00 | 0.00 | 0.00 | 68 | 1009.2 |
| 20260506115154 | 56 | 59 | 7.0 | 16.5 | 0.00 | 0.00 | 0.00 | 67 | 1009.1 |
| 20260506114655 | 56 | 33 | 7.8 | 16.5 | 0.00 | 0.00 | 0.00 | 67 | 1009.1 |
| 20260506114155 | 56 | 31 | 7.0 | 15.6 | 0.00 | 0.00 | 0.00 | 66 | 1009.1 |
| 20260506113654 | 56 | 119 | 7.0 | 13.9 | 0.00 | 0.00 | 0.00 | 68 | 1009.1 |
| 20260506113154 | 56 | 85 | 7.8 | 13.0 | 0.00 | 0.00 | 0.00 | 68 | 1009.1 |
| 20260506112654 | 56 | 53 | 7.8 | 15.6 | 0.00 | 0.00 | 0.00 | 69 | 1009.1 |
| 20260506112154 | 56 | 31 | 7.8 | 15.6 | 0.00 | 0.00 | 0.00 | 69 | 1009.1 |
| 20260506112133 | 56 | 46 | 7.0 | 14.8 | 0.00 | 0.00 | 0.00 | 70 | 1009.2 |
| 20260506111419 | 56 | 70 | 6.1 | 12.2 | 0.00 | 0.00 | 0.00 | 69 | 1009.1 |
| 20260506110648 | 57 | 55 | 5.2 | 12.2 | 0.00 | 0.00 | 0.00 | 71 | 1009.0 |
| 20260506110147 | 56 | 51 | 5.2 | 12.2 | 0.00 | 0.00 | 0.00 | 71 | 1009.0 |
| 20260506110137 | 56 | 40 | 6.1 | 13.0 | 0.00 | 0.00 | 0.00 | 70 | 1009.0 |
| 20260506105141 | 56 | 17 | 6.1 | 13.0 | 0.00 | 0.00 | 0.00 | 70 | 1009.0 |
| 20260506104638 | 56 | 49 | 6.1 | 12.2 | 0.00 | 0.00 | 0.00 | 69 | 1009.1 |
| 20260506104136 | 56 | 0 | 4.3 | 11.3 | 0.00 | 0.00 | 0.00 | 68 | 1009.2 |
| 20260506103636 | 56 | 90 | 4.3 | 10.4 | 0.00 | 0.00 | 0.00 | 69 | 1009.2 |
| 20260506103136 | 56 | 63 | 5.2 | 10.4 | 0.00 | 0.00 | 0.00 | 70 | 1009.2 |
| 20260506102636 | 56 | 345 | 5.2 | 13.0 | 0.00 | 0.00 | 0.00 | 68 | 1009.2 |
| 20260506102136 | 55 | 19 | 5.2 | 13.0 | 0.00 | 0.00 | 0.00 | 69 | 1009.2 |
| 20260506101635 | 55 | 40 | 4.3 | 9.6 | 0.00 | 0.00 | 0.00 | 70 | 1009.1 |
| 20260506101133 | 55 | 0 | 4.3 | 9.6 | 0.00 | 0.00 | 0.00 | 71 | 1009.2 |
| 20260506100632 | 54 | 22 | 4.3 | 9.6 | 0.00 | 0.00 | 0.00 | 71 | 1009.1 |
| 20260506100130 | 54 | 67 | 3.5 | 8.7 | 0.00 | 0.00 | 0.00 | 73 | 1009.1 |
| 20260506095630 | 54 | 18 | 4.3 | 9.6 | 0.00 | 0.00 | 0.00 | 73 | 1009.1 |
| 20260506095130 | 53 | 12 | 4.3 | 9.6 | 0.00 | 0.00 | 0.00 | 72 | 1009.1 |
| 20260506094628 | 53 | 81 | 5.2 | 13.9 | 0.00 | 0.00 | 0.00 | 72 | 1009.2 |
| 20260506094616 | 53 | 40 | 4.3 | 13.9 | 0.00 | 0.00 | 0.00 | 73 | 1009.2 |
| 20260506093628 | 53 | 26 | 4.3 | 11.3 | 0.00 | 0.00 | 0.00 | 73 | 1009.2 |
| 20260506093128 | 53 | 45 | 3.5 | 11.3 | 0.00 | 0.00 | 0.00 | 74 | 1009.2 |
| 20260506092627 | 53 | 47 | 4.3 | 9.6 | 0.00 | 0.00 | 0.00 | 74 | 1009.3 |
| 20260506092609 | 52 | 17 | 4.3 | 9.6 | 0.00 | 0.00 | 0.00 | 74 | 1009.2 |
| 20260506091844 | 52 | 38 | 5.2 | 12.2 | 0.00 | 0.00 | 0.00 | 74 | 1009.2 |
| 20260506091346 | 52 | 45 | 5.2 | 12.2 | 0.00 | 0.00 | 0.00 | 74 | 1009.1 |
| 20260506090624 | 52 | 55 | 5.2 | 10.4 | 0.00 | 0.00 | 0.00 | 75 | 1009.2 |
| 20260506090122 | 52 | 13 | 5.2 | 10.4 | 0.00 | 0.00 | 0.00 | 76 | 1009.1 |
| 20260506085617 | 52 | 20 | 5.2 | 11.3 | 0.00 | 0.00 | 0.00 | 77 | 1009.1 |
| 20260506085114 | 52 | 51 | 4.3 | 11.3 | 0.00 | 0.00 | 0.00 | 77 | 1009.1 |
| 20260506084614 | 52 | 31 | 5.2 | 12.2 | 0.00 | 0.00 | 0.00 | 78 | 1009.2 |
| 20260506084113 | 52 | 38 | 5.2 | 12.2 | 0.00 | 0.00 | 0.00 | 78 | 1009.1 |
| 20260506083610 | 52 | 78 | 4.3 | 10.4 | 0.00 | 0.00 | 0.00 | 79 | 1009.0 |
| 20260506083110 | 52 | 28 | 3.5 | 8.7 | 0.00 | 0.00 | 0.00 | 79 | 1009.0 |
| 20260506082609 | 52 | 13 | 4.3 | 9.6 | 0.00 | 0.00 | 0.00 | 80 | 1009.0 |
| 20260506082102 | 52 | 44 | 5.2 | 13.0 | 0.00 | 0.00 | 0.00 | 80 | 1009.0 |
| 20260506081602 | 52 | 52 | 5.2 | 13.0 | 0.00 | 0.00 | 0.00 | 79 | 1009.0 |
| 20260506081102 | 52 | 86 | 5.2 | 12.2 | 0.00 | 0.00 | 0.00 | 79 | 1008.9 |
| 20260506080820 | 52 | 39 | 5.2 | 12.2 | 0.00 | 0.00 | 0.00 | 79 | 1008.9 |
| 20260506073525 | 51 | 36 | 6.1 | 10.4 | 0.00 | 0.00 | 0.00 | 81 | 1008.5 |
| 20260506073514 | 51 | 5 | 6.1 | 13.0 | 0.00 | 0.00 | 0.00 | 81 | 1008.6 |
| 20260506072524 | 51 | 50 | 5.2 | 13.0 | 0.00 | 0.00 | 0.00 | 82 | 1008.7 |
| 20260506072234 | 51 | 46 | 4.3 | 11.3 | 0.00 | 0.00 | 0.00 | 83 | 1008.6 |
| 20260506071518 | 51 | 89 | 4.3 | 9.6 | 0.00 | 0.00 | 0.00 | 84 | 1008.6 |
| 20260506071242 | 51 | 98 | 4.3 | 9.6 | 0.00 | 0.00 | 0.00 | 85 | 1008.6 |
| 20260506070515 | 51 | 41 | 4.3 | 13.0 | 0.00 | 0.00 | 0.00 | 86 | 1008.6 |
| 20260506062456 | 50 | 81 | 5.2 | 12.2 | 0.00 | 0.00 | 0.00 | 88 | 1008.3 |
| 20260506061956 | 50 | 34 | 6.1 | 15.6 | 0.00 | 0.00 | 0.00 | 88 | 1008.3 |
| 20260506061456 | 50 | 36 | 6.1 | 15.6 | 0.00 | 0.00 | 0.00 | 88 | 1008.2 |
| 20260506060955 | 50 | 85 | 6.1 | 13.9 | 0.00 | 0.00 | 0.00 | 89 | 1008.4 |
| 20260506060709 | 50 | 48 | 5.2 | 11.3 | 0.00 | 0.00 | 0.00 | 89 | 1008.3 |
| 20260506060209 | 50 | 56 | 4.3 | 8.7 | 0.00 | 0.00 | 0.00 | 89 | 1008.4 |
| 20260506050930 | 49 | 41 | 4.3 | 11.3 | 0.00 | 0.00 | 0.00 | 89 | 1008.2 |
| 20260506050427 | 49 | 64 | 5.2 | 11.3 | 0.00 | 0.00 | 0.00 | 89 | 1008.2 |
| 20260506050149 | 49 | 74 | 5.2 | 12.2 | 0.00 | 0.00 | 0.00 | 89 | 1008.2 |
| 20260506044426 | 49 | 46 | 5.2 | 13.9 | 0.00 | 0.00 | 0.00 | 89 | 1008.2 |
| 20260506043925 | 49 | 37 | 4.3 | 12.2 | 0.00 | 0.00 | 0.00 | 89 | 1008.3 |
| 20260506043426 | 49 | 99 | 4.3 | 12.2 | 0.00 | 0.00 | 0.00 | 89 | 1008.3 |
| 20260506043148 | 49 | 104 | 3.5 | 8.7 | 0.00 | 0.00 | 0.00 | 89 | 1008.3 |
| 20260506042424 | 48 | 28 | 3.5 | 8.7 | 0.00 | 0.00 | 0.00 | 89 | 1008.3 |
| 20260506041922 | 48 | 45 | 3.5 | 9.6 | 0.00 | 0.00 | 0.00 | 88 | 1008.3 |
| 20260506041642 | 48 | 45 | 3.5 | 9.6 | 0.00 | 0.00 | 0.00 | 88 | 1008.3 |
| 20260506040920 | 48 | 61 | 3.5 | 8.7 | 0.00 | 0.00 | 0.00 | 88 | 1008.4 |
| 20260506040644 | 48 | 44 | 3.5 | 8.7 | 0.00 | 0.00 | 0.00 | 88 | 1008.4 |
| 20260506040139 | 48 | 23 | 3.5 | 7.8 | 0.00 | 0.00 | 0.00 | 88 | 1008.3 |
| 20260506035419 | 48 | 45 | 3.5 | 7.8 | 0.00 | 0.00 | 0.00 | 88 | 1008.4 |
| 20260506034920 | 48 | 56 | 3.5 | 7.8 | 0.00 | 0.00 | 0.00 | 88 | 1008.4 |
| 20260506034420 | 48 | 54 | 3.5 | 7.8 | 0.00 | 0.00 | 0.00 | 88 | 1008.4 |
| 20260506034138 | 48 | 44 | 3.5 | 7.8 | 0.00 | 0.00 | 0.00 | 88 | 1008.4 |
| 20260506033419 | 48 | 46 | 3.5 | 7.0 | 0.00 | 0.00 | 0.00 | 88 | 1008.4 |
| 20260506032920 | 48 | 38 | 3.5 | 8.7 | 0.00 | 0.00 | 0.00 | 88 | 1008.5 |
| 20260506032650 | 48 | 40 | 3.5 | 8.7 | 0.00 | 0.00 | 0.00 | 88 | 1008.5 |
| 20260506031920 | 48 | 42 | 3.5 | 7.8 | 0.00 | 0.00 | 0.00 | 89 | 1008.6 |
| 20260506031420 | 48 | 60 | 2.6 | 7.8 | 0.00 | 0.00 | 0.00 | 89 | 1008.5 |
| 20260506030919 | 48 | 56 | 3.5 | 8.7 | 0.00 | 0.00 | 0.00 | 89 | 1008.6 |
| 20260506030420 | 48 | 44 | 3.5 | 8.7 | 0.00 | 0.00 | 0.00 | 89 | 1008.7 |
| 20260506025919 | 48 | 40 | 3.5 | 6.1 | 0.00 | 0.00 | 0.00 | 89 | 1008.6 |
| 20260506025641 | 48 | 34 | 3.5 | 7.0 | 0.00 | 0.00 | 0.00 | 89 | 1008.7 |
| 20260506024920 | 48 | 52 | 3.5 | 7.8 | 0.00 | 0.00 | 0.00 | 89 | 1008.7 |
| 20260506024419 | 48 | 64 | 2.6 | 7.8 | 0.00 | 0.00 | 0.00 | 89 | 1008.7 |
| 20260506023919 | 48 | 61 | 2.6 | 7.0 | 0.00 | 0.00 | 0.00 | 89 | 1008.8 |
| 20260506023420 | 48 | 105 | 3.5 | 8.7 | 0.00 | 0.00 | 0.00 | 89 | 1008.8 |
| 20260506022919 | 48 | 53 | 2.6 | 8.7 | 0.00 | 0.00 | 0.00 | 89 | 1008.9 |
| 20260506022419 | 48 | 76 | 2.6 | 8.7 | 0.00 | 0.00 | 0.00 | 89 | 1008.9 |
| 20260506021919 | 48 | 40 | 2.6 | 8.7 | 0.00 | 0.00 | 0.00 | 89 | 1008.8 |
| 20260506021418 | 48 | 52 | 2.6 | 5.2 | 0.00 | 0.00 | 0.00 | 89 | 1008.9 |
| 20260506020917 | 49 | 42 | 2.6 | 7.0 | 0.00 | 0.00 | 0.00 | 89 | 1008.9 |
| 20260506020414 | 49 | 59 | 3.5 | 7.0 | 0.00 | 0.00 | 0.00 | 89 | 1008.9 |
| 20260506015913 | 49 | 28 | 2.6 | 5.2 | 0.00 | 0.00 | 0.00 | 89 | 1008.9 |
| 20260506015412 | 49 | 25 | 2.6 | 5.2 | 0.00 | 0.00 | 0.00 | 88 | 1008.9 |
| 20260506014912 | 49 | 71 | 2.6 | 5.2 | 0.00 | 0.00 | 0.00 | 88 | 1008.9 |
| 20260506014411 | 49 | 38 | 1.7 | 4.3 | 0.00 | 0.00 | 0.00 | 88 | 1008.9 |
| 20260506013910 | 49 | 45 | 1.7 | 5.2 | 0.00 | 0.00 | 0.00 | 88 | 1009.0 |
| 20260506013407 | 49 | 22 | 2.6 | 5.2 | 0.00 | 0.00 | 0.00 | 88 | 1008.9 |
| 20260506012907 | 49 | 30 | 2.6 | 6.1 | 0.00 | 0.00 | 0.00 | 88 | 1009.0 |
| 20260506012408 | 49 | 55 | 3.5 | 8.7 | 0.00 | 0.00 | 0.00 | 88 | 1009.0 |
| 20260506012129 | 49 | 37 | 4.3 | 8.7 | 0.00 | 0.00 | 0.00 | 88 | 1009.1 |
| 20260506011359 | 49 | 111 | 4.3 | 10.4 | 0.00 | 0.00 | 0.00 | 88 | 1009.1 |
| 20260506010859 | 49 | 20 | 4.3 | 10.4 | 0.00 | 0.00 | 0.00 | 87 | 1009.0 |
| 20260506010359 | 49 | 66 | 4.3 | 9.6 | 0.00 | 0.00 | 0.00 | 87 | 1009.1 |
| 20260506005900 | 50 | 355 | 5.2 | 9.6 | 0.00 | 0.00 | 0.00 | 87 | 1009.0 |
| 20260506005359 | 50 | 52 | 5.2 | 12.2 | 0.00 | 0.00 | 0.00 | 87 | 1009.0 |
| 20260506004900 | 50 | 49 | 5.2 | 12.2 | 0.00 | 0.00 | 0.00 | 86 | 1009.0 |
| 20260506004359 | 50 | 59 | 5.2 | 10.4 | 0.00 | 0.00 | 0.00 | 86 | 1009.1 |
| 20260506003900 | 50 | 39 | 4.3 | 10.4 | 0.00 | 0.00 | 0.00 | 86 | 1009.2 |
| 20260506003400 | 50 | 52 | 4.3 | 8.7 | 0.00 | 0.00 | 0.00 | 86 | 1009.3 |
| 20260506002900 | 50 | 36 | 4.3 | 8.7 | 0.00 | 0.00 | 0.00 | 86 | 1009.4 |
| 20260506002400 | 50 | 71 | 4.3 | 8.7 | 0.00 | 0.00 | 0.00 | 86 | 1009.5 |
| 20260506001900 | 50 | 70 | 3.5 | 9.6 | 0.00 | 0.00 | 0.00 | 86 | 1009.5 |
| 20260506001359 | 50 | 67 | 3.5 | 11.3 | 0.00 | 0.00 | 0.00 | 85 | 1009.5 |
| 20260506000858 | 50 | 28 | 4.3 | 11.3 | 0.00 | 0.00 | 0.00 | 85 | 1009.5 |
| 20260506000358 | 50 | 33 | 4.3 | 8.7 | 0.00 | 0.00 | 0.00 | 85 | 1009.5 |
| 20260505235857 | 50 | 17 | 3.5 | 8.7 | 0.00 | 0.00 | 0.00 | 84 | 1009.5 |
| 20260505235357 | 50 | 46 | 4.3 | 10.4 | 0.00 | 0.00 | 0.00 | 84 | 1009.5 |
| 20260505234857 | 50 | 24 | 6.1 | 12.2 | 0.00 | 0.00 | 0.00 | 84 | 1009.4 |
| 20260505234357 | 50 | 32 | 6.1 | 12.2 | 0.00 | 0.00 | 0.00 | 84 | 1009.4 |
| 20260505233857 | 50 | 69 | 6.1 | 11.3 | 0.00 | 0.00 | 0.00 | 84 | 1009.5 |
| 20260505233357 | 50 | 32 | 6.1 | 11.3 | 0.00 | 0.00 | 0.00 | 84 | 1009.5 |
| 20260505232857 | 50 | 38 | 6.1 | 10.4 | 0.00 | 0.00 | 0.00 | 84 | 1009.6 |
| 20260505232357 | 50 | 32 | 6.1 | 13.0 | 0.00 | 0.00 | 0.00 | 84 | 1009.7 |
| 20260505231857 | 50 | 27 | 7.0 | 13.0 | 0.00 | 0.00 | 0.00 | 84 | 1009.6 |
| 20260505231357 | 49 | 16 | 7.0 | 12.2 | 0.00 | 0.00 | 0.00 | 84 | 1009.6 |
| 20260505230857 | 49 | 42 | 7.8 | 13.9 | 0.00 | 0.00 | 0.00 | 85 | 1009.8 |
| 20260505230358 | 49 | 49 | 7.8 | 14.8 | 0.00 | 0.00 | 0.00 | 85 | 1009.7 |
| 20260505225857 | 49 | 48 | 7.8 | 14.8 | 0.00 | 0.00 | 0.00 | 85 | 1009.7 |
| 20260505225355 | 49 | 53 | 7.8 | 15.6 | 0.00 | 0.00 | 0.00 | 85 | 1009.7 |
| 20260505224848 | 49 | 57 | 7.8 | 15.6 | 0.00 | 0.00 | 0.00 | 85 | 1009.8 |
| 20260505224350 | 49 | 27 | 7.8 | 13.9 | 0.00 | 0.00 | 0.00 | 85 | 1009.9 |
| 20260505223849 | 49 | 47 | 7.0 | 13.9 | 0.00 | 0.00 | 0.00 | 85 | 1009.9 |
| 20260505223350 | 49 | 51 | 6.1 | 12.2 | 0.00 | 0.00 | 0.00 | 85 | 1010.0 |
| 20260505222849 | 49 | 60 | 5.2 | 10.4 | 0.00 | 0.00 | 0.00 | 85 | 1010.2 |
| 20260505222349 | 49 | 41 | 5.2 | 9.6 | 0.00 | 0.00 | 0.00 | 85 | 1010.1 |
| 20260505221850 | 49 | 19 | 6.1 | 11.3 | 0.00 | 0.00 | 0.00 | 85 | 1010.2 |
| 20260505221349 | 49 | 49 | 6.1 | 12.2 | 0.00 | 0.00 | 0.00 | 85 | 1010.3 |
| 20260505220849 | 49 | 40 | 6.1 | 13.0 | 0.00 | 0.00 | 0.00 | 85 | 1010.4 |
| 20260505220608 | 49 | 35 | 7.0 | 13.9 | 0.00 | 0.00 | 0.00 | 85 | 1010.4 |
| 20260505215848 | 49 | 26 | 7.0 | 13.9 | 0.00 | 0.00 | 0.00 | 85 | 1010.4 |
| 20260505215349 | 49 | 40 | 7.0 | 12.2 | 0.00 | 0.00 | 0.00 | 85 | 1010.5 |
| 20260505214849 | 49 | 34 | 6.1 | 12.2 | 0.00 | 0.00 | 0.00 | 85 | 1010.5 |
| 20260505214608 | 49 | 39 | 6.1 | 10.4 | 0.00 | 0.00 | 0.00 | 85 | 1010.6 |
| 20260505213849 | 49 | 32 | 6.1 | 10.4 | 0.00 | 0.00 | 0.00 | 85 | 1010.6 |
| 20260505213349 | 49 | 53 | 5.2 | 11.3 | 0.00 | 0.00 | 0.00 | 85 | 1010.7 |
| 20260505212848 | 49 | 42 | 4.3 | 11.3 | 0.00 | 0.00 | 0.00 | 85 | 1010.6 |
| 20260505212345 | 49 | 39 | 4.3 | 9.6 | 0.00 | 0.00 | 0.00 | 85 | 1010.6 |
| 20260505211841 | 49 | 49 | 3.5 | 9.6 | 0.00 | 0.00 | 0.00 | 85 | 1010.6 |
| 20260505211340 | 49 | 54 | 4.3 | 13.0 | 0.00 | 0.00 | 0.00 | 84 | 1010.6 |
| 20260505210832 | 49 | 61 | 5.2 | 13.0 | 0.00 | 0.00 | 0.00 | 84 | 1010.6 |
| 20260505210333 | 49 | 0 | 4.3 | 11.3 | 0.00 | 0.00 | 0.00 | 84 | 1010.6 |
| 20260505205833 | 49 | 51 | 4.3 | 11.3 | 0.00 | 0.00 | 0.00 | 84 | 1010.7 |
| 20260505205642 | 49 | 51 | 4.3 | 12.2 | 0.00 | 0.00 | 0.00 | 84 | 1010.7 |
| 20260505205546 | 49 | 49 | 4.3 | 12.2 | 0.00 | 0.00 | 0.00 | 83 | 1010.7 |
| 20260505204330 | 49 | 50 | 5.2 | 9.6 | 0.00 | 0.00 | 0.00 | 83 | 1010.7 |
| 20260505203829 | 49 | 32 | 4.3 | 8.7 | 0.00 | 0.00 | 0.00 | 83 | 1010.7 |
| 20260505203551 | 49 | 355 | 3.5 | 9.6 | 0.00 | 0.00 | 0.00 | 83 | 1010.7 |
| 20260505202825 | 49 | 83 | 3.5 | 9.6 | 0.00 | 0.00 | 0.00 | 83 | 1010.7 |
| 20260505202325 | 49 | 42 | 4.3 | 12.2 | 0.00 | 0.00 | 0.00 | 83 | 1010.7 |
| 20260505201825 | 49 | 74 | 5.2 | 12.2 | 0.00 | 0.00 | 0.00 | 83 | 1010.8 |
| 20260505201322 | 49 | 53 | 6.1 | 11.3 | 0.00 | 0.00 | 0.00 | 83 | 1010.7 |
| 20260505201040 | 49 | 43 | 6.1 | 11.3 | 0.00 | 0.00 | 0.00 | 84 | 1010.7 |
| 20260505200322 | 49 | 40 | 4.3 | 9.6 | 0.00 | 0.00 | 0.00 | 84 | 1010.7 |
| 20260505195823 | 49 | 43 | 4.3 | 8.7 | 0.00 | 0.00 | 0.00 | 84 | 1010.7 |
| 20260505195321 | 49 | 53 | 4.3 | 10.4 | 0.00 | 0.00 | 0.00 | 84 | 1010.7 |
| 20260505194821 | 49 | 27 | 5.2 | 12.2 | 0.00 | 0.00 | 0.00 | 84 | 1010.7 |
| 20260505194319 | 49 | 348 | 6.1 | 12.2 | 0.00 | 0.00 | 0.00 | 84 | 1010.7 |
| 20260505193816 | 49 | 44 | 4.3 | 11.3 | 0.00 | 0.00 | 0.00 | 84 | 1010.7 |
| 20260505193308 | 49 | 28 | 5.2 | 11.3 | 0.00 | 0.00 | 0.00 | 85 | 1010.5 |
| 20260505192810 | 49 | 65 | 6.1 | 11.3 | 0.00 | 0.00 | 0.00 | 85 | 1010.6 |
| 20260505192305 | 49 | 32 | 6.1 | 11.3 | 0.00 | 0.00 | 0.00 | 85 | 1010.6 |
| 20260505191804 | 50 | 40 | 5.2 | 11.3 | 0.00 | 0.00 | 0.00 | 85 | 1010.7 |
| 20260505191522 | 50 | 38 | 6.1 | 11.3 | 0.00 | 0.00 | 0.00 | 85 | 1010.6 |
| 20260505190802 | 50 | 26 | 6.1 | 13.0 | 0.00 | 0.00 | 0.00 | 85 | 1010.6 |
| 20260505190255 | 50 | 34 | 5.2 | 13.0 | 0.00 | 0.00 | 0.00 | 85 | 1010.5 |
| 20260505185750 | 50 | 32 | 7.0 | 12.2 | 0.00 | 0.00 | 0.00 | 85 | 1010.5 |
| 20260505185250 | 50 | 38 | 7.0 | 12.2 | 0.00 | 0.00 | 0.00 | 85 | 1010.5 |
| 20260505184750 | 50 | 49 | 7.0 | 13.9 | 0.00 | 0.00 | 0.00 | 84 | 1010.4 |
| 20260505184249 | 50 | 38 | 7.0 | 13.9 | 0.00 | 0.00 | 0.00 | 84 | 1010.5 |
| 20260505183750 | 50 | 40 | 5.2 | 13.9 | 0.00 | 0.00 | 0.00 | 85 | 1010.5 |
| 20260505183248 | 50 | 57 | 5.2 | 12.2 | 0.00 | 0.00 | 0.00 | 85 | 1010.4 |
| 20260505182747 | 50 | 35 | 6.1 | 12.2 | 0.00 | 0.00 | 0.00 | 84 | 1010.4 |
| 20260505182246 | 50 | 69 | 6.1 | 11.3 | 0.00 | 0.00 | 0.00 | 84 | 1010.4 |
| 20260505181747 | 50 | 43 | 6.1 | 11.3 | 0.00 | 0.00 | 0.00 | 84 | 1010.3 |
| 20260505181246 | 50 | 32 | 6.1 | 12.2 | 0.00 | 0.00 | 0.00 | 84 | 1010.5 |
| 20260505180741 | 50 | 21 | 7.0 | 13.9 | 0.00 | 0.00 | 0.00 | 84 | 1010.5 |
| 20260505180241 | 50 | 32 | 7.0 | 15.6 | 0.00 | 0.00 | 0.00 | 83 | 1010.4 |
| 20260505175741 | 50 | 61 | 6.1 | 15.6 | 0.00 | 0.00 | 0.00 | 83 | 1010.5 |
| 20260505175241 | 51 | 33 | 5.2 | 11.3 | 0.00 | 0.00 | 0.00 | 83 | 1010.5 |
| 20260505174950 | 51 | 37 | 6.1 | 13.9 | 0.00 | 0.00 | 0.00 | 83 | 1010.4 |
| 20260505174233 | 51 | 25 | 7.0 | 13.9 | 0.00 | 0.00 | 0.00 | 83 | 1010.3 |
| 20260505173733 | 51 | 57 | 6.1 | 13.0 | 0.00 | 0.00 | 0.00 | 83 | 1010.4 |
| 20260505173233 | 51 | 70 | 6.1 | 13.0 | 0.00 | 0.00 | 0.00 | 83 | 1010.4 |
| 20260505172733 | 51 | 95 | 6.1 | 13.9 | 0.00 | 0.00 | 0.00 | 83 | 1010.5 |
| 20260505172452 | 51 | 30 | 6.1 | 13.9 | 0.00 | 0.00 | 0.00 | 83 | 1010.4 |
| 20260505171730 | 51 | 45 | 5.2 | 13.0 | 0.00 | 0.00 | 0.00 | 83 | 1010.4 |
| 20260505171229 | 51 | 34 | 6.1 | 13.0 | 0.00 | 0.00 | 0.00 | 83 | 1010.5 |
| 20260505170729 | 51 | 36 | 7.0 | 14.8 | 0.00 | 0.00 | 0.00 | 83 | 1010.5 |
| 20260505170229 | 51 | 36 | 7.8 | 14.8 | 0.00 | 0.00 | 0.00 | 83 | 1010.5 |
| 20260505165956 | 51 | 41 | 7.8 | 14.8 | 0.00 | 0.00 | 0.00 | 83 | 1010.5 |
| 20260505165222 | 51 | 46 | 7.0 | 14.8 | 0.00 | 0.00 | 0.00 | 83 | 1010.6 |
| 20260505164721 | 51 | 51 | 7.0 | 13.0 | 0.00 | 0.00 | 0.00 | 83 | 1010.7 |
| 20260505164221 | 51 | 35 | 7.0 | 12.2 | 0.00 | 0.00 | 0.00 | 83 | 1010.7 |
| 20260505163723 | 51 | 38 | 7.0 | 13.9 | 0.00 | 0.00 | 0.00 | 83 | 1010.7 |
| 20260505163219 | 51 | 50 | 7.8 | 13.9 | 0.00 | 0.00 | 0.00 | 82 | 1010.8 |
| 20260505162941 | 51 | 34 | 7.8 | 13.9 | 0.00 | 0.00 | 0.00 | 82 | 1010.7 |
| 20260505162217 | 51 | 26 | 7.8 | 13.0 | 0.00 | 0.00 | 0.00 | 82 | 1010.7 |
| 20260505161717 | 51 | 38 | 7.8 | 14.8 | 0.00 | 0.00 | 0.00 | 82 | 1010.8 |
| 20260505161217 | 51 | 57 | 7.0 | 14.8 | 0.00 | 0.00 | 0.00 | 82 | 1010.7 |
| 20260505160717 | 51 | 53 | 7.0 | 12.2 | 0.00 | 0.00 | 0.00 | 83 | 1010.7 |
| 20260505160215 | 51 | 30 | 7.8 | 13.9 | 0.00 | 0.00 | 0.00 | 83 | 1010.7 |
| 20260505152712 | 52 | 24 | 8.7 | 14.8 | 0.00 | 0.00 | 0.00 | 81 | 1010.9 |
| 20260505152212 | 52 | 49 | 7.0 | 14.8 | 0.00 | 0.00 | 0.00 | 81 | 1010.9 |
| 20260505151712 | 52 | 55 | 6.1 | 12.2 | 0.00 | 0.00 | 0.00 | 81 | 1010.9 |
| 20260505151224 | 52 | 9 | 6.1 | 11.3 | 0.00 | 0.00 | 0.00 | 81 | 1010.9 |
| 20260505150932 | 52 | 55 | 6.1 | 13.9 | 0.00 | 0.00 | 0.00 | 80 | 1011.0 |
| 20260505150211 | 52 | 34 | 7.0 | 13.9 | 0.00 | 0.00 | 0.00 | 80 | 1010.9 |